Temp
19 20 20 19 19 18 16 17 17 17 17 17 17 17 17 17 17 17 16 16 16 17
19 19 19 18 17 18 17 18 17 17 17 17 17 17 17 16 17 17 16 16 16 16
19 19 19 18 18 18 17 18 17 17 18 17 17 17 17 17 17 17 16 16 16 16
19 19 18 18 17 18 17 18 18 18 18 17 17 17 16 17 17 16 17 16 16 16
19 19 18 18 18 18 18 18 18 18 18 17 17 17 16 16 17 16 15 16 16 16
19 19 18 18 17 18 18 18 18 18 18 15 16 16 16 16 16 16 16 15 15 16
19 19 19 18 18 18 18 18 18 18 16 15 15 15 15 16 15 15 16 15 15 16
19 19 19 19 19 18 18 18 18 17 15 15 15 15 15 15 15 15 15 16 16 15
20 19 19 19 19 18 18 18 18 18 16 15 14 14 14 15 16 15 16 16 15 14
20 20 19 19 19 19 18 18 18 17 16 14 14 13 14 15 16 16 16 15 14 14
21 20 20 19 19 19 18 17 16 16 15 14 13 13 13 15 16 16 16 14 15 15
21 20 20 20 19 18 17 15 14 14 14 14 13 13 13 15 16 16 16 16 15 16
21 21 20 19 18 18 18 17 15 14 14 14 14 14 14 14 14 14 14 15 15 15
21 21 20 19 18 18 19 19 17 15 14 14 14 14 14 14 14 15 14 15 15 14
Height
734 733 733 734 733 733 734 735 737 738 739 738 740 741 743 744 746 747 748 748 750 751
732 733 733 733 734 733 734 735 738 738 738 739 740 741 743 744 745 746 747 750 750 751
731 731 732 733 733 733 735 737 738 739 738 740 741 742 743 743 744 746 747 749 749 751
730 731 731 732 733 733 735 737 739 739 740 741 742 743 743 744 744 746 748 750 750 751
729 730 731 731 732 734 735 737 738 740 741 742 743 744 744 745 746 748 750 751 751 752
729 730 731 732 733 734 735 737 738 740 742 743 745 745 746 746 747 750 752 753 753 754
729 730 731 732 733 735 736 737 739 741 743 744 746 747 748 748 749 751 752 754 755 756
729 730 731 732 733 735 737 738 740 743 744 745 748 749 750 751 752 753 754 755 757 758
728 730 732 733 734 736 738 739 741 743 745 747 749 751 752 753 754 755 756 758 760 761
728 730 732 733 734 737 739 741 743 745 748 749 752 753 754 755 757 758 759 761 763 765
727 730 733 733 735 738 741 743 745 746 750 752 754 755 757 757 759 761 762 763 766 768
727 731 734 735 737 739 742 743 746 748 751 754 756 757 759 760 761 763 764 767 769 771
726 731 734 738 739 741 742 745 747 750 752 753 756 758 760 762 763 766 767 770 773 777
726 731 735 738 741 742 743 745 749 752 755 757 758 760 762 763 766 768 771 774 778 781
Wind_Speed
5 3 3 2 3 2 4 6 7 7 6 5 5 7 8 8 8 7 5 7 8 6
5 2 0 1 2 2 6 8 6 6 6 6 5 6 7 7 8 7 6 7 8 7
4 2 3 4 4 4 7 8 7 6 5 5 6 4 4 6 7 6 8 7 5 2
4 3 3 3 5 6 9 10 7 6 4 4 4 3 3 4 5 5 7 8 6 6
4 3 3 4 6 8 9 9 9 7 5 4 3 3 4 5 5 7 7 6 7 9
5 2 4 4 7 8 9 9 9 8 5 4 4 5 5 6 7 8 8 8 9 10
5 4 6 5 7 9 9 9 9 7 6 6 5 5 6 7 8 8 9 9 9 11
6 7 7 8 9 9 10 10 10 10 9 7 7 6 7 8 9 9 8 10 9 10
8 9 8 9 9 10 11 11 11 10 9 8 7 10 10 9 10 10 10 11 13 13
9 11 10 10 11 11 11 10 10 10 9 8 11 13 11 11 9 10 11 12 15 14
11 12 10 10 12 11 11 9 8 11 11 11 10 12 11 9 9 10 11 12 14 15
12 12 11 10 12 11 11 9 8 10 11 11 12 9 10 8 10 12 12 13 14 17
14 13 11 10 11 12 12 11 11 12 13 15 11 9 10 8 13 12 14 15 15 20
15 14 12 10 10 13 13 13 14 13 13 12 12 10 11 13 16 16 16 17 19 22
Wind_Direction
160 200 250 247 315 260 169 177 158 174 176 183 176 169 182 191 200 212 207 173 183 226
166 206 351 155 122 163 157 151 161 164 146 136 149 155 171 188 196 199 162 148 166 212
164 159 157 143 143 145 146 161 161 161 139 133 145 151 171 176 183 172 150 177 229 205
149 133 167 159 154 149 157 164 164 162 142 130 139 159 165 164 147 148 164 170 177 154
143 145 169 143 138 157 164 165 166 163 139 134 154 163 150 147 149 145 132 141 156 162
150 150 135 139 137 157 160 163 162 162 143 149 147 139 138 132 123 133 135 148 147 147
147 130 136 128 120 143 150 152 153 147 141 133 125 125 129 126 125 129 136 138 142 136
142 143 137 122 125 130 140 142 139 135 131 129 124 124 125 123 123 127 122 115 109 116
146 153 140 134 133 134 132 139 142 138 131 126 121 141 133 124 124 124 120 113 104 108
150 155 147 143 136 132 133 135 135 130 130 122 133 143 137 124 122 121 126 120 121 122
159 153 146 144 138 140 138 136 143 134 139 137 142 145 141 131 135 129 128 130 128 127
159 157 152 148 146 144 136 135 144 152 142 146 147 145 146 149 146 139 128 124 123 118
162 156 154 149 146 152 140 120 129 138 156 152 152 158 158 148 139 135 127 126 115 125
167 164 154 150 148 154 153 126 128 130 139 145 153 153 150 160 150 138 127 125 127 131